Libertyville, IL

4:46 AM CST on February 09, 2016 (GMT -0600)
Chicago Executive

Weather History for KPWK - June, 2013

Change the Weather History Date:

Saturday, June 15, 2013

  Actual Average Record
Temperature  
Mean Temperature 69 °F 69 °F  
Max Temperature 80 °F 79 °F 91 °F (2012)
Min Temperature 57 °F 58 °F 44 °F (1997)
Degree Days  
Heating Degree Days 0 2  
Month to date heating degree days 50 42  
Since 1 June heating degree days 50 42  
Since 1 July heating degree days 6365 6400  
Cooling Degree Days 4 5  
Month to date cooling degree days 30 58  
Year to date cooling degree days 111 100  
Since 1 June cooling degree days 30 58  
Growing Degree Days 18 (Base 50)    
Moisture  
Dew Point 61 °F    
Average Humidity 74    
Maximum Humidity 88    
Minimum Humidity 62    
Precipitation  
Precipitation 0.12 in 0.13 in 1.72 in (2015)
Month to date precipitation 1.40 2.24  
Year to date precipitation 11.36 13.73  
Sea Level Pressure  
Sea Level Pressure 29.97 in    
Wind  
Wind Speed 6 mph (SSW)    
Max Wind Speed 24 mph    
Max Gust Speed 36 mph    
Visibility 9 miles    
Events Rain , Thunderstorm    
T = Trace of Precipitation, MM = Missing Value Source: NWS Daily Summary

Daily Weather History Graph

Daily Weather History Graph

Search for Another Location

Airport or City:

Trip Planner

Search our weather history database for the weather conditions in past years. The results will help you decide how hot, cold, wet, or windy it might be!

Date:

Astronomy

Jun. 15, 2013 Rise Set
Actual Time 5:15 AM CDT 8:29 PM CDT
Civil Twilight 4:40 AM CDT 9:03 PM CDT
Nautical Twilight 3:56 AM CDT 9:48 PM CDT
Astronomical Twilight 3:02 AM CDT 10:42 PM CDT
Moon 11:55 AM CDT (6/15) No Moon Set
Length of Visible Light 16h 23m
Length of Day
15h 14m
Waxing Crescent, 40% of the Moon is Illuminated
Jun 15
Waxing Crescent
Jun 16
First Quarter
Jun 23
Full
Jun 29
Last Quarter
Jul 8
New

Hourly Weather History & Observations

Time (CDT) Temp. Dew Point Humidity Pressure Visibility Wind Dir Wind Speed Gust Speed Precip Events Conditions
12:52 AM 57.9 °F 50.0 °F 75% 30.05 in 10.0 mi Calm Calm - N/A   Clear
1:52 AM 57.9 °F 51.1 °F 78% 30.05 in 10.0 mi Calm Calm - N/A   Scattered Clouds
2:52 AM 57.9 °F 51.1 °F 78% 30.04 in 10.0 mi Calm Calm - N/A   Clear
3:52 AM 57.9 °F 52.0 °F 81% 30.04 in 10.0 mi Calm Calm - N/A   Clear
4:52 AM 60.1 °F 53.1 °F 78% 30.08 in 10.0 mi Calm Calm - 0.00 in Rain Light Rain
5:52 AM 60.1 °F 55.9 °F 86% 30.06 in 10.0 mi Calm Calm - 0.00 in   Overcast
6:52 AM 62.1 °F 55.9 °F 80% 30.04 in 10.0 mi Calm Calm - N/A   Overcast
7:52 AM 64.9 °F 57.0 °F 75% 30.01 in 10.0 mi Calm Calm - N/A   Mostly Cloudy
8:52 AM 66.0 °F 59.0 °F 78% 30.00 in 10.0 mi NNE 4.6 mph - N/A   Overcast
9:52 AM 64.9 °F 60.1 °F 84% 30.01 in 5.0 mi Calm Calm - 0.04 in Rain Light Rain
10:39 AM 66.2 °F 62.6 °F 88% 30.02 in 2.0 mi SSW 6.9 mph - 0.06 in Rain Rain
10:52 AM 66.9 °F 63.0 °F 87% 30.01 in 4.0 mi South 9.2 mph - 0.07 in Rain Light Rain
11:52 AM 69.1 °F 64.0 °F 84% 29.99 in 7.0 mi SSW 11.5 mph - 0.01 in Rain Light Rain
12:52 PM 71.1 °F 64.9 °F 81% 29.99 in 8.0 mi SSW 5.8 mph - 0.00 in Rain Light Rain
1:52 PM 75.0 °F 66.0 °F 73% 29.99 in 10.0 mi South 5.8 mph - 0.00 in   Partly Cloudy
2:52 PM 75.9 °F 64.0 °F 67% 29.98 in 10.0 mi Variable 4.6 mph - N/A   Clear
3:52 PM 77.0 °F 64.0 °F 64% 29.96 in 10.0 mi SW 5.8 mph - N/A   Mostly Cloudy
4:52 PM 79.0 °F 64.9 °F 62% 29.92 in 10.0 mi SSW 4.6 mph - N/A   Partly Cloudy
5:52 PM 79.0 °F 64.9 °F 62% 29.89 in 10.0 mi SSW 8.1 mph - N/A   Clear
6:52 PM 79.0 °F 64.9 °F 62% 29.88 in 10.0 mi SW 5.8 mph - N/A   Clear
7:52 PM 78.1 °F 64.9 °F 64% 29.87 in 10.0 mi South 9.2 mph - N/A   Clear
8:52 PM 77.0 °F 66.0 °F 69% 29.86 in 10.0 mi South 8.1 mph - N/A   Clear
9:52 PM 77.0 °F 64.9 °F 66% 29.89 in 10.0 mi SW 9.2 mph 17.3 mph N/A   Mostly Cloudy
10:50 PM 77.0 °F 66.2 °F 69% 29.89 in 10.0 mi SW 8.1 mph 16.1 mph N/A Thunderstorm Overcast
10:52 PM 77.0 °F 66.0 °F 69% 29.88 in 10.0 mi WSW 10.4 mph 16.1 mph N/A Thunderstorm Overcast
11:18 PM 77.0 °F 64.4 °F 65% 29.88 in 10.0 mi SW 15.0 mph 21.9 mph N/A   Mostly Cloudy
11:52 PM 75.9 °F 66.0 °F 71% 29.87 in 10.0 mi SW 11.5 mph 21.9 mph N/A   Mostly Cloudy